Airfield :
LOGIN :

Register | Disclaimer

   EN    FR    IT 

 










Legend :    VFR   Marginal VFR   IFR   Intensive IFR   Very Intensive IFR
Visi :
Ceiling :
>= 8 km
>= 3000ft
5 to 8 km
1000 to 3000 ft
1500m to 5 km
500 to 1000 ft
800 to 1500m
200 to 500 ft
< 800m
< 200 ft
Symbols :   Thunderstorms  Fog  Heavy snow  Heavy precipitations  Wind > 20 kt
SIGMETs :     Misc.  Thunderstorms  Icing  Turbulence  Mountain Waves  Volcanic Ashes







- Airport Elevation : 121 ft
- IATA code : HUY
- Download approach charts


EGNJ - Humberside

CURRENT METAR :
  • 240820Z 28009KT 250V310 CAVOK 15/04 Q1016

EXPIRED METARs :
  • 240750Z 28008KT CAVOK 14/05 Q1016
  • 240720Z 28007KT CAVOK 13/06 Q1016
  • 240650Z 28007KT CAVOK 13/06 Q1016
  • 240620Z 28006KT CAVOK 12/07 Q1016
  • 240550Z 25006KT CAVOK 11/08 Q1016

TAF TAF EGNJ
Valid from the 24 at 09:00 until the 24 at 18:00 UTC


240759Z 2409/2418 29006KT 9999 FEW040
ATIS : +44 1652 682 020
No reported NOTAMs for that airfield.



MET'MAP, your aeronautical weather chart ! - Copyright ORBIFLY December 2007 - Disclaimer

ORBIFLY MET'MAP TEAM :

Programming & Development : Alexandra Zaïnal
Concept & Development : Baudouin d'Aumeries
Co-Development & Prog : Marc-Olivier Méhu
Technical & hardware support : Manuel Goepfert

Contact : metmap@orbifly.com




SOURCES & CREDITS :

   NOAA